Time,TemperatureF,DewpointF,PressureIn,WindDirection,WindDirectionDegrees,WindSpeedMPH,WindSpeedGustMPH,Humidity,HourlyPrecipIn,Conditions,Clouds,dailyrainin,SoftwareType,DateUTC
2013-09-07 00:00:00,65.0,60.4,30.09,WSW,248,0.0,1.0,85,0.00,,OVC,0.00,VWS V14.01,2013-09-07 04:00:00,
2013-09-07 01:00:00,65.6,60.6,30.09,WSW,248,0.0,0.0,84,0.00,,OVC,0.00,VWS V14.01,2013-09-07 05:00:00,
2013-09-07 02:00:00,65.3,60.3,30.08,WSW,248,0.0,0.0,84,0.00,,OVC,0.00,VWS V14.01,2013-09-07 06:00:00,
2013-09-07 03:00:00,64.9,60.3,30.08,WSW,248,0.0,0.0,85,0.00,,OVC,0.00,VWS V14.01,2013-09-07 07:00:00,
2013-09-07 04:00:00,64.6,60.7,30.07,WSW,248,0.0,2.0,87,0.00,,OVC,0.00,VWS V14.01,2013-09-07 08:00:00,
2013-09-07 05:00:00,63.4,59.8,30.07,WSW,248,0.0,0.0,88,0.00,,OVC,0.00,VWS V14.01,2013-09-07 09:00:00,
2013-09-07 06:00:00,62.2,59.5,30.08,WSW,248,0.0,0.0,91,0.00,,OVC,0.00,VWS V14.01,2013-09-07 10:00:00,
2013-09-07 07:00:00,61.5,59.5,30.09,WSW,248,0.0,0.0,93,0.00,,OVC,0.00,VWS V14.01,2013-09-07 11:00:00,
2013-09-07 08:00:00,62.0,59.7,30.10,WSW,248,0.0,0.0,92,0.00,,OVC,0.00,VWS V14.01,2013-09-07 12:00:00,
2013-09-07 09:00:00,61.9,59.5,30.10,WSW,248,0.0,0.0,92,0.00,,OVC,0.00,VWS V14.01,2013-09-07 13:00:00,
2013-09-07 10:00:00,63.6,59.3,30.11,WSW,248,0.0,3.0,86,0.00,,OVC,0.00,VWS V14.01,2013-09-07 14:00:00,
2013-09-07 11:00:00,65.1,61.8,30.11,WSW,248,0.0,2.0,89,0.00,,OVC,0.00,VWS V14.01,2013-09-07 15:00:00,
2013-09-07 12:00:00,67.2,62.2,30.10,WSW,248,0.0,2.0,84,0.00,,OVC,0.00,VWS V14.01,2013-09-07 16:00:00,
2013-09-07 13:00:00,71.0,65.2,30.08,WSW,248,0.0,6.0,82,0.00,,OVC,0.00,VWS V14.01,2013-09-07 17:00:00,
2013-09-07 14:00:00,76.1,66.4,30.07,SW,225,0.0,5.0,72,0.00,,OVC,0.00,VWS V14.01,2013-09-07 18:00:00,
2013-09-07 15:00:00,79.4,66.6,30.05,SW,225,0.0,4.0,65,0.00,,OVC,0.00,VWS V14.01,2013-09-07 19:00:00,
2013-09-07 16:00:00,78.6,67.2,30.03,SW,225,0.0,5.0,68,0.00,,OVC,0.00,VWS V14.01,2013-09-07 20:00:00,
2013-09-07 17:00:00,80.4,68.4,30.01,SW,225,0.0,3.0,67,0.00,,OVC,0.00,VWS V14.01,2013-09-07 21:00:00,
2013-09-07 18:00:00,78.2,68.8,30.00,SW,225,0.0,3.0,73,0.00,,OVC,0.00,VWS V14.01,2013-09-07 22:00:00,
2013-09-07 19:00:00,75.1,68.5,29.99,SW,225,0.0,3.0,80,0.00,,OVC,0.00,VWS V14.01,2013-09-07 23:00:00,
2013-09-07 20:00:00,70.7,66.0,29.99,SW,225,0.0,1.0,85,0.00,,OVC,0.00,VWS V14.01,2013-09-08 00:00:00,
2013-09-07 21:00:00,68.7,65.3,30.00,SW,225,0.0,1.0,89,0.00,,OVC,0.00,VWS V14.01,2013-09-08 01:00:00,
2013-09-07 22:00:00,67.9,65.5,30.00,SW,225,0.0,1.0,92,0.00,,OVC,0.00,VWS V14.01,2013-09-08 02:00:00,
2013-09-07 23:00:00,67.5,64.8,30.00,SW,225,0.0,0.0,91,0.00,,OVC,0.00,VWS V14.01,2013-09-08 03:00:00,